Flag for Poland Weather past 2 weeks in Sosnowiec, Poland

Now
64 °F

Scattered clouds.


Feels Like: 64 °F
Forecast: 57 / 72 °F
Wind: 12 mph from Northeast

Location: Katowice Airport

Current Time: Sep 2, 2014 at 4:20:56 PM

Latest Report: Sep 2, 2014 at 4:00 PM


Visibility: N/A

Pressure: 30.04 "Hg

Humidity: 83%

Dew point: 59 °F

Location of SosnowiecLocation

Historic Weather in Sosnowiec — Graph

°F

Sosnowiec temperature yesterday

Maximum temperature yesterday: 64 °F (at 3:00 PM)
Minimum temperature yesterday: 57 °F (at 3:00 AM)
Average temperature yesterday: 60 °F

Past Weeks' High & Low Weather Summary

 TemperatureHumidityPressure
High73 °F (Aug 18, 5:00 PM)100% (Aug 20, 12:30 AM)30.09 "Hg (Aug 20, 12:30 AM)
Low43 °F (Aug 22, 4:30 AM)38% (Aug 29, 4:30 PM)29.74 "Hg (Aug 26, 12:00 PM)
Average59 °F80%29.97 "Hg
* Reported Aug 18 3:00 PM — Sep 2 3:00 PM, Sosnowiec, Weather by CustomWeather, © 2014

Note: Actual official high and low records may vary slightly from our data, if they occured in-between our weather recording intervals... More about our weather records

Advertising

Sosnowiec weather history for previous 24 hours

 ConditionsComfort  
Time TempWeatherWind HumidityBarometerVisibility
3:00 PM
Sep 2
63 °FBroken clouds.10 mph83%30.04 "HgN/A
2:30 PM63 °FBroken clouds.10 mph83%30.04 "HgN/A
2:00 PM63 °FBroken clouds.12 mph83%30.04 "HgN/A
1:30 PM61 °FBroken clouds.12 mph88%30.04 "HgN/A
1:00 PM63 °FBroken clouds.9 mph83%30.04 "HgN/A
12:30 PM61 °FBroken clouds.10 mph88%30.04 "HgN/A
12:00 PM61 °FBroken clouds.8 mph88%30.04 "HgN/A
11:30 AM61 °FBroken clouds.10 mph88%30.01 "HgN/A
11:00 AM61 °FBroken clouds.10 mph88%30.01 "HgN/A
10:30 AM61 °FBroken clouds.12 mph94%30.01 "HgN/A
10:00 AM61 °FBroken clouds.12 mph94%30.01 "HgN/A
9:30 AM59 °FDrizzle. Fog.10 mph100%30.01 "Hg2 mi
9:00 AM59 °FDrizzle. Fog.10 mph100%29.98 "Hg1 mi
8:30 AM59 °FDrizzle. Fog.9 mph100%29.98 "Hg1 mi
8:00 AM59 °FDrizzle. Fog.8 mph100%29.98 "Hg1 mi
7:30 AM59 °FDrizzle. Fog.10 mph94%29.98 "Hg1 mi
7:00 AM59 °FDrizzle. Fog.8 mph94%29.98 "Hg1 mi
6:30 AM59 °FDrizzle. Fog.6 mph94%29.98 "Hg1 mi
6:00 AM59 °FDrizzle. Fog.7 mph94%29.98 "Hg1 mi
5:30 AM59 °FDrizzle. Fog.6 mph94%29.95 "Hg1 mi
5:00 AM59 °FDrizzle. Fog.8 mph94%29.95 "Hg1 mi
4:30 AM59 °FDrizzle. Fog.7 mph94%29.95 "Hg1 mi
4:00 AM59 °FDrizzle. Fog.8 mph94%29.95 "Hg2 mi
3:30 AM59 °FFog.6 mph94%29.95 "Hg2 mi
3:00 AM59 °FFog.7 mph94%29.95 "Hg2 mi
2:30 AM59 °FLight rain. Fog.6 mph94%29.95 "Hg2 mi
2:00 AM59 °FLight rain. Fog.7 mph94%29.95 "Hg2 mi
1:30 AM59 °FLight rain. Fog.9 mph94%29.95 "Hg2 mi
1:00 AM59 °FLight rain. Fog.8 mph100%29.98 "Hg2 mi
12:30 AM59 °FLight rain. Fog.9 mph100%29.98 "Hg2 mi
12:00 AM59 °FLight rain. Partly cloudy.8 mph100%29.98 "Hg4 mi
11:30 PM
Sep 1
59 °FLight rain. Fog.8 mph100%29.98 "Hg3 mi
11:00 PM59 °FLight rain. Fog.9 mph100%29.98 "Hg2 mi
10:30 PM59 °FSprinkles. Fog.9 mph100%29.98 "Hg2 mi
10:00 PM61 °FSprinkles. Partly cloudy.8 mph94%29.98 "Hg4 mi
9:30 PM61 °FSprinkles. Partly cloudy.10 mph94%29.98 "Hg4 mi
9:00 PM61 °FPartly cloudy.8 mph94%29.98 "Hg4 mi
8:30 PM61 °FPartly cloudy.6 mph94%29.98 "Hg4 mi
8:00 PM61 °FPartly sunny.6 mph94%29.98 "Hg4 mi
7:30 PM63 °FBroken clouds.9 mph94%29.95 "Hg5 mi
7:00 PM63 °FBroken clouds.7 mph94%29.95 "Hg5 mi
6:30 PM63 °FBroken clouds.7 mph94%29.95 "HgN/A
6:00 PM64 °FBroken clouds.7 mph88%29.95 "HgN/A
5:30 PM64 °FBroken clouds.6 mph88%29.95 "HgN/A
5:00 PM64 °FBroken clouds.7 mph88%29.95 "HgN/A
4:30 PM64 °FScattered clouds.6 mph88%29.95 "HgN/A
4:00 PM64 °FScattered clouds.6 mph88%29.95 "HgN/A
Weather by CustomWeather, © 2014

See weather overviewHow to use our weather pages